When you browse on this site, cookies collect data to enhance your experience and personalize the content and advertising you see.
Visit our Privacy Policy to learn more. By continuing to use the site, you agree to this use of cookies and data.
  • en France
  • Liste des pays
  • À 7 jours
  • Température de l'eau
  • Carte satellitaire
  • Carte météo
  • Widgets météo
  • user-avatar
    Se connecter

    Météo par heure à Burnie

    Ce jour, 17 Juillet, Mercredi

    Heure Température Précipitation Vent Pression Humidité
    00:00 +9°C° 0.1 mm 6 m/s 750 mmHg 89%
    01:00 +8°C° 0.1 mm 6 m/s 750 mmHg 89%
    02:00 +8°C° 0 mm 6 m/s 750 mmHg 90%
    03:00 +8°C° 0 mm 6 m/s 749 mmHg 90%
    04:00 +8°C° 0 mm 7 m/s 749 mmHg 90%
    05:00 +8°C° 0.1 mm 7 m/s 748 mmHg 89%
    06:00 +8°C° 0.1 mm 7 m/s 748 mmHg 89%
    07:00 +8°C° 0.1 mm 7 m/s 748 mmHg 88%
    08:00 +8°C° 0.1 mm 7 m/s 747 mmHg 88%
    09:00 +8°C° 0.1 mm 7 m/s 746 mmHg 87%
    10:00 +9°C° 0.1 mm 7 m/s 746 mmHg 86%
    11:00 +9°C° 1 mm 8 m/s 745 mmHg 89%
    12:00 +7°C° 1 mm 9 m/s 744 mmHg 92%
    13:00 +7°C° 1 mm 10 m/s 743 mmHg 95%
    14:00 +7°C° 1 mm 9 m/s 743 mmHg 92%
    15:00 +7°C° 1 mm 9 m/s 743 mmHg 88%
    16:00 +6°C° 1 mm 8 m/s 743 mmHg 85%
    17:00 +6°C° 0 mm 8 m/s 744 mmHg 85%
    18:00 +5°C° 0 mm 8 m/s 744 mmHg 85%
    19:00 +5°C° 0 mm 8 m/s 745 mmHg 84%
    20:00 +5°C° 0 mm 8 m/s 746 mmHg 83%
    21:00 +5°C° 0 mm 8 m/s 746 mmHg 82%
    22:00 +5°C° 0 mm 8 m/s 747 mmHg 81%
    23:00 +5°C° 0 mm 8 m/s 747 mmHg 82%

    Demain, 18 Juillet, Jeudi

    Heure Température Précipitation Vent Pression Humidité
    00:00 +5°C° 0 mm 8 m/s 747 mmHg 82%
    01:00 +5°C° 0 mm 8 m/s 748 mmHg 82%
    02:00 +5°C° 0 mm 8 m/s 748 mmHg 83%
    03:00 +4°C° 0 mm 8 m/s 748 mmHg 84%
    04:00 +4°C° 0 mm 8 m/s 749 mmHg 84%
    05:00 +4°C° 0 mm 7 m/s 749 mmHg 85%
    06:00 +4°C° 0 mm 6 m/s 749 mmHg 85%
    07:00 +3°C° 0 mm 5 m/s 749 mmHg 85%
    08:00 +5°C° 0 mm 5 m/s 749 mmHg 83%
    09:00 +6°C° 0 mm 5 m/s 749 mmHg 80%
    10:00 +7°C° 0 mm 5 m/s 750 mmHg 78%
    11:00 +7°C° 0 mm 5 m/s 749 mmHg 77%
    12:00 +8°C° 0 mm 5 m/s 749 mmHg 76%
    13:00 +9°C° 0 mm 6 m/s 748 mmHg 76%
    14:00 +8°C° 0 mm 6 m/s 748 mmHg 79%
    15:00 +8°C° 0 mm 6 m/s 747 mmHg 81%
    16:00 +8°C° 0 mm 6 m/s 746 mmHg 84%
    17:00 +8°C° 1.8 mm 7 m/s 746 mmHg 88%
    18:00 +7°C° 1.8 mm 8 m/s 745 mmHg 93%
    19:00 +7°C° 1.8 mm 9 m/s 745 mmHg 97%
    20:00 +7°C° 1 mm 8 m/s 745 mmHg 94%
    21:00 +6°C° 1 mm 8 m/s 746 mmHg 91%
    22:00 +5°C° 1 mm 8 m/s 746 mmHg 89%
    23:00 +5°C° 0 mm 7 m/s 747 mmHg 88%

    Après-demain, 19 Juillet, Vendredi

    Heure Température Précipitation Vent Pression Humidité
    00:00 +4°C° 0 mm 7 m/s 747 mmHg 88%
    01:00 +4°C° 0 mm 6 m/s 748 mmHg 88%
    02:00 +4°C° 0 mm 6 m/s 748 mmHg 87%
    03:00 +4°C° 0 mm 6 m/s 749 mmHg 87%
    04:00 +5°C° 0 mm 6 m/s 749 mmHg 87%
    05:00 +5°C° 0 mm 6 m/s 750 mmHg 86%
    06:00 +5°C° 0 mm 6 m/s 750 mmHg 86%
    07:00 +4°C° 0 mm 6 m/s 751 mmHg 85%
    08:00 +5°C° 0 mm 6 m/s 751 mmHg 83%
    09:00 +7°C° 0 mm 6 m/s 752 mmHg 80%
    10:00 +8°C° 0 mm 6 m/s 752 mmHg 77%
    11:00 +9°C° 0 mm 5 m/s 752 mmHg 74%
    12:00 +9°C° 0 mm 5 m/s 752 mmHg 71%
    13:00 +11°C° 0 mm 4 m/s 752 mmHg 69%
    14:00 +11°C° 0 mm 4 m/s 752 mmHg 73%
    15:00 +10°C° 0 mm 4 m/s 753 mmHg 76%
    16:00 +10°C° 0 mm 4 m/s 753 mmHg 80%
    17:00 +8°C° 0 mm 4 m/s 753 mmHg 85%
    18:00 +6°C° 0 mm 4 m/s 753 mmHg 90%
    19:00 +5°C° 0 mm 4 m/s 754 mmHg 95%
    20:00 +5°C° 0 mm 3 m/s 754 mmHg 94%
    21:00 +7°C° 0 mm 3 m/s 754 mmHg 92%
    22:00 +7°C° 0 mm 3 m/s 754 mmHg 90%
    23:00 +7°C° 0 mm 3 m/s 754 mmHg 91%

    20 Juillet, Samedi

    Heure Température Précipitation Vent Pression Humidité
    00:00 +7°C° 0 mm 3 m/s 753 mmHg 92%
    01:00 +7°C° 0 mm 3 m/s 753 mmHg 93%
    02:00 +7°C° 0 mm 3 m/s 752 mmHg 93%
    03:00 +7°C° 0 mm 3 m/s 752 mmHg 92%
    04:00 +8°C° 0 mm 2 m/s 751 mmHg 92%
    05:00 +8°C° 0.4 mm 3 m/s 751 mmHg 94%
    06:00 +7°C° 0.4 mm 4 m/s 751 mmHg 96%
    07:00 +8°C° 0.4 mm 5 m/s 750 mmHg 98%
    08:00 +8°C° 0.2 mm 6 m/s 750 mmHg 96%
    09:00 +9°C° 0.2 mm 6 m/s 750 mmHg 95%
    10:00 +9°C° 0.2 mm 7 m/s 750 mmHg 94%
    11:00 +10°C° 0.1 mm 7 m/s 749 mmHg 91%
    12:00 +10°C° 0.1 mm 6 m/s 748 mmHg 88%
    13:00 +10°C° 0.1 mm 6 m/s 748 mmHg 86%
    14:00 +10°C° 0 mm 6 m/s 747 mmHg 85%
    15:00 +10°C° 0 mm 6 m/s 747 mmHg 85%
    16:00 +9°C° 0 mm 5 m/s 746 mmHg 85%
    17:00 +9°C° 0 mm 5 m/s 746 mmHg 87%
    18:00 +9°C° 0 mm 5 m/s 746 mmHg 89%
    19:00 +10°C° 0 mm 4 m/s 746 mmHg 91%
    20:00 +9°C° 0.3 mm 5 m/s 745 mmHg 92%
    21:00 +9°C° 0.3 mm 5 m/s 744 mmHg 93%
    22:00 +9°C° 0.3 mm 6 m/s 744 mmHg 94%
    23:00 +9°C° 0.1 mm 7 m/s 743 mmHg 93%

    21 Juillet, Dimanche

    Heure Température Précipitation Vent Pression Humidité
    00:00 +9°C° 0.1 mm 8 m/s 742 mmHg 93%
    01:00 +8°C° 0.1 mm 9 m/s 741 mmHg 92%
    02:00 +7°C° 0.7 mm 9 m/s 741 mmHg 92%
    03:00 +7°C° 0.7 mm 9 m/s 742 mmHg 91%
    04:00 +6°C° 0.7 mm 9 m/s 742 mmHg 91%
    05:00 +6°C° 0.1 mm 8 m/s 742 mmHg 91%
    06:00 +5°C° 0.1 mm 7 m/s 743 mmHg 91%
    07:00 +4°C° 0.1 mm 6 m/s 744 mmHg 91%
    08:00 +5°C° 0 mm 6 m/s 744 mmHg 89%
    09:00 +5°C° 0 mm 6 m/s 745 mmHg 87%
    10:00 +7°C° 0 mm 6 m/s 745 mmHg 85%
    11:00 +8°C° 0.1 mm 6 m/s 745 mmHg 82%
    12:00 +8°C° 0.1 mm 7 m/s 745 mmHg 78%
    13:00 +9°C° 0.1 mm 7 m/s 744 mmHg 75%
    14:00 +8°C° 0.2 mm 7 m/s 744 mmHg 80%
    15:00 +8°C° 0.2 mm 7 m/s 744 mmHg 84%
    16:00 +8°C° 0.2 mm 7 m/s 744 mmHg 89%
    17:00 +7°C° 0.1 mm 6 m/s 744 mmHg 90%
    18:00 +7°C° 0.1 mm 6 m/s 744 mmHg 92%
    19:00 +7°C° 0.1 mm 6 m/s 744 mmHg 93%
    20:00 +7°C° 0.1 mm 5 m/s 744 mmHg 93%
    21:00 +7°C° 0.1 mm 5 m/s 743 mmHg 93%
    22:00 +7°C° 0.1 mm 5 m/s 743 mmHg 93%
    23:00 +7°C° 0 mm 6 m/s 743 mmHg 93%

    22 Juillet, Lundi

    Heure Température Précipitation Vent Pression Humidité
    00:00 +7°C° 0 mm 6 m/s 742 mmHg 92%
    01:00 +6°C° 0 mm 7 m/s 741 mmHg 92%
    02:00 +6°C° 0.4 mm 7 m/s 740 mmHg 92%
    03:00 +6°C° 0.4 mm 8 m/s 740 mmHg 93%
    04:00 +6°C° 0.4 mm 9 m/s 739 mmHg 94%
    05:00 +6°C° 1 mm 9 m/s 738 mmHg 94%
    06:00 +6°C° 1 mm 9 m/s 738 mmHg 95%
    07:00 +7°C° 1 mm 10 m/s 738 mmHg 95%
    08:00 +6°C° 3.1 mm 9 m/s 738 mmHg 96%
    09:00 +6°C° 3.1 mm 9 m/s 738 mmHg 96%
    10:00 +6°C° 3.1 mm 8 m/s 738 mmHg 97%
    11:00 +6°C° 1.5 mm 8 m/s 737 mmHg 96%
    12:00 +6°C° 1.5 mm 9 m/s 737 mmHg 94%
    13:00 +6°C° 1.5 mm 9 m/s 737 mmHg 93%
    14:00 +6°C° 0.3 mm 9 m/s 737 mmHg 92%
    15:00 +6°C° 0.3 mm 9 m/s 738 mmHg 91%
    16:00 +6°C° 0.3 mm 9 m/s 738 mmHg 90%
    17:00 +6°C° 0.3 mm 9 m/s 738 mmHg 92%
    18:00 +5°C° 0.3 mm 8 m/s 739 mmHg 93%
    19:00 +5°C° 0.3 mm 7 m/s 739 mmHg 94%
    20:00 +5°C° 0.3 mm 7 m/s 739 mmHg 94%
    21:00 +4°C° 0.3 mm 8 m/s 739 mmHg 94%
    22:00 +4°C° 0.3 mm 8 m/s 739 mmHg 94%
    23:00 +5°C° 0.6 mm 9 m/s 738 mmHg 94%
    Voir plus